Waarnemingen

Advertentie
Mijn weer
Capo Palinuro, Italië (16310): temperatuur & dauwpunt: 09.12.2017 20:00:00 - 15.12.2017 20:00:00 (CET)Capo Palinuro, Italië (16310): windsnelheid: 09.12.2017 20:00:00 - 15.12.2017 20:00:00 (CET)Capo Palinuro, Italië (16310): windrichting: 09.12.2017 20:00:00 - 15.12.2017 20:00:00 (CET)Capo Palinuro, Italië (16310): luchtdruk: 09.12.2017 20:00:00 - 15.12.2017 20:00:00 (CET)Capo Palinuro, Italië (16310): zicht: 09.12.2017 20:00:00 - 15.12.2017 20:00:00 (CET)Capo Palinuro, Italië (16310): Zonneschijnduur: 09.12.2017 20:00:00 - 15.12.2017 20:00:00 (CET)
Datum & Tijd tt [°C] td [°C] ff [km/u] ff [kn] dd ppp [hPa] vv [km] sd [min]
15.12.2017 20:00:00 13,6 11,3 16 9 ZZW 1007,8 20 -
15.12.2017 19:00:00 13,6 11,3 18 10 ZZW 1007,8 20 -
15.12.2017 18:00:00 13,6 11,0 18 10 ZZW 1008,0 20 -
15.12.2017 17:00:00 13,6 10,2 16 9 Z 1008,8 20 -
15.12.2017 16:00:00 14,4 11,4 22 12 Z 1009,2 20 0
15.12.2017 15:00:00 14,6 11,6 24 13 ZZW 1009,6 20 0
15.12.2017 14:00:00 14,6 10,8 28 15 Z 1010,0 20 0
15.12.2017 13:00:00 14,6 10,2 39 21 ZZW 1010,8 15 0
15.12.2017 12:00:00 14,6 10,6 37 20 WZW 1012,2 15 0
15.12.2017 11:00:00 14,6 10,8 35 19 ZW 1012,4 15 0
15.12.2017 10:00:00 14,6 11,2 34 18 ZZW 1012,5 15 0
15.12.2017 09:00:00 14,6 11,7 37 20 ZW 1012,9 15 0
15.12.2017 08:00:00 14,6 11,7 22 12 ZZW 1013,0 10 0
15.12.2017 07:00:00 14,6 11,9 28 15 ZW 1013,4 10 -
15.12.2017 06:00:00 14,6 12,5 28 15 WZW 1013,6 15 -
15.12.2017 05:00:00 14,6 12,1 22 12 W 1014,6 15 -
15.12.2017 04:00:00 14,4 11,7 9 5 W 1015,0 20 -
15.12.2017 03:00:00 14,4 12,1 11 6 W 1015,2 20 -
15.12.2017 02:00:00 17,7 15,2 11 6 WNW 1015,4 15 -
15.12.2017 01:00:00 14,2 11,7 13 7 W 1015,8 15 -
15.12.2017 00:00:00 14,2 11,7 11 6 WZW 1016,0 15 -
14.12.2017 23:00:00 14,2 11,7 13 7 WZW 1016,0 15 -
14.12.2017 22:00:00 14,2 11,5 15 8 ZZW 1016,2 15 -
14.12.2017 21:00:00 14,0 11,5 18 10 NW 1016,6 15 -
14.12.2017 20:00:00 14,0 11,5 15 8 WNW 1016,9 15 -
14.12.2017 19:00:00 14,0 11,4 21 11 N 1017,3 15 -
14.12.2017 18:00:00 13,2 10,7 11 6 ZZW 1017,7 15 -
14.12.2017 17:00:00 13,2 10,7 11 6 ZW 1018,2 15 -
14.12.2017 16:00:00 13,4 10,9 11 6 WZW 1018,4 15 -
14.12.2017 15:00:00 13,6 11,5 13 7 ZW 1018,7 15 0
14.12.2017 14:00:00 14,0 9,7 11 6 OZO 1019,0 15 30
14.12.2017 13:00:00 14,4 8,8 22 12 ZZO 1019,5 15 54
14.12.2017 12:00:00 14,0 8,2 18 10 NW 1019,4 15 36
14.12.2017 11:00:00 14,0 9,2 16 9 NO 1019,4 15 6
14.12.2017 10:00:00 13,8 8,8 18 10 WNW 1019,1 15 0
14.12.2017 09:00:00 13,4 8,0 22 12 WNW 1019,1 15 0
14.12.2017 08:00:00 13,2 7,2 18 10 WNW 1019,1 15 0
14.12.2017 07:00:00 13,0 8,9 15 8 WNW 1019,1 15 0
14.12.2017 06:00:00 13,0 9,2 11 6 NW 1019,0 15 -
14.12.2017 05:00:00 13,0 9,6 11 6 WNW 1019,0 15 -
14.12.2017 04:00:00 13,0 10,0 11 6 NW 1019,2 15 -
14.12.2017 03:00:00 13,0 10,0 11 6 WNW 1019,1 15 -
14.12.2017 02:00:00 13,0 9,6 15 8 WNW 1019,0 15 -
14.12.2017 01:00:00 13,0 9,6 9 5 WNW 1019,1 15 -
14.12.2017 00:00:00 13,0 9,6 11 6 WNW 1019,1 15 -
13.12.2017 23:00:00 13,0 10,2 11 6 WNW 1019,1 15 -
13.12.2017 22:00:00 13,0 10,2 11 6 ZZO 1019,2 15 -
13.12.2017 21:00:00 13,0 10,2 9 5 ZZO 1019,1 15 -
13.12.2017 20:00:00 13,6 11,0 9 5 WNW 1019,0 15 -
13.12.2017 19:00:00 13,8 11,1 9 5 ZZW 1018,0 15 -
13.12.2017 18:00:00 14,4 11,9 11 6 ZO 1018,2 15 -
13.12.2017 17:00:00 14,0 11,7 0 0 N 1018,1 15 -
13.12.2017 16:00:00 15,0 12,5 9 5 ZZO 1018,6 15 0
13.12.2017 15:00:00 15,0 12,5 9 5 ZZW 1019,0 15 0
13.12.2017 14:00:00 15,0 12,5 11 6 ZZO 1019,9 15 0
13.12.2017 13:00:00 15,2 13,6 9 5 ZZO 1020,0 15 0
13.12.2017 12:00:00 16,2 14,2 0 0 N 1019,9 18 0
13.12.2017 11:00:00 16,8 14,8 11 6 ZZO 1019,9 18 0
13.12.2017 10:00:00 16,0 13,1 13 7 ZO 1019,8 20 0
13.12.2017 09:00:00 16,0 13,8 11 6 ZO 1019,5 20 0
13.12.2017 08:00:00 15,8 13,7 5 3 NNO 1019,1 20 0
13.12.2017 07:00:00 16,0 14,0 8 4 ONO 1019,1 20 0
13.12.2017 06:00:00 15,4 13,2 8 4 NO 1019,2 15 -
13.12.2017 05:00:00 15,4 12,7 13 7 ZZW 1019,2 15 -
13.12.2017 04:00:00 16,0 13,5 9 5 NO 1019,1 15 -
13.12.2017 03:00:00 16,0 12,5 15 8 ZW 1019,1 15 -
13.12.2017 02:00:00 16,0 13,8 11 6 ZW 1019,1 15 -
13.12.2017 01:00:00 16,2 14,2 9 5 NNO 1019,1 15 -
13.12.2017 00:00:00 16,4 14,1 11 6 ZO 1019,1 15 -
12.12.2017 23:00:00 16,2 14,0 13 7 ZZW 1019,0 15 -
12.12.2017 22:00:00 16,0 12,5 18 10 ZZO 1018,8 15 -
12.12.2017 21:00:00 16,0 12,5 16 9 ZZO 1018,4 15 -
12.12.2017 20:00:00 16,0 11,8 13 7 WZW 1017,9 15 -
12.12.2017 19:00:00 16,2 12,0 15 8 WZW 1017,9 15 -
12.12.2017 18:00:00 16,2 13,7 16 9 WZW 1018,1 15 -
12.12.2017 17:00:00 16,4 14,4 29 16 ZZW 1017,2 15 0
12.12.2017 16:00:00 16,6 14,4 29 16 ZZW 1017,0 15 0
12.12.2017 15:00:00 16,8 14,6 34 18 ZZW 1017,0 15 60
12.12.2017 14:00:00 17,0 14,7 41 22 Z 1017,0 12 60
12.12.2017 13:00:00 17,0 14,7 39 21 Z 1017,0 12 60
12.12.2017 12:00:00 17,0 14,5 28 15 ZZW 1017,0 12 60
12.12.2017 11:00:00 16,8 14,3 26 14 ZZW 1016,8 12 60
12.12.2017 10:00:00 16,4 15,6 18 10 Z 1016,6 12 0
12.12.2017 09:00:00 16,0 14,9 15 8 ZZO 1016,4 12 0
12.12.2017 08:00:00 15,0 12,1 15 8 ZZO 1016,1 12 0
12.12.2017 07:00:00 15,0 12,3 15 8 ZZO 1015,2 10 0
12.12.2017 06:00:00 15,0 12,3 15 8 Z 1015,0 15 -
12.12.2017 05:00:00 15,0 12,3 15 8 Z 1014,9 15 -
12.12.2017 04:00:00 15,0 12,7 22 12 Z 1015,5 1,5 -
12.12.2017 03:00:00 15,0 12,7 18 10 Z 1014,1 15 -
12.12.2017 02:00:00 15,0 12,7 18 10 Z 1013,9 15 -
12.12.2017 01:00:00 15,0 12,3 18 10 Z 1013,9 15 -
12.12.2017 00:00:00 15,0 12,5 18 10 Z 1013,9 15 -
11.12.2017 23:00:00 15,0 11,6 18 10 ZO 1013,9 15 -
11.12.2017 22:00:00 15,0 12,5 18 10 Z 1013,9 15 -
11.12.2017 21:00:00 15,0 12,5 22 12 Z 1014,0 18 -
11.12.2017 20:00:00 14,8 12,3 22 12 Z 1014,1 18 -
11.12.2017 19:00:00 14,8 12,5 18 10 Z 1014,1 20 0
11.12.2017 18:00:00 14,8 12,7 18 10 Z 1014,1 20 0
11.12.2017 17:00:00 15,0 13,0 22 12 ZZO 1014,0 20 0
11.12.2017 16:00:00 15,0 13,2 22 12 Z 1014,0 20 0
11.12.2017 15:00:00 15,0 13,4 22 12 Z 1014,4 20 -
11.12.2017 14:00:00 14,2 12,8 26 14 Z 1014,9 20 0
11.12.2017 13:00:00 14,0 11,0 22 12 ZZO 1015,6 20 0
11.12.2017 12:00:00 14,0 10,4 24 13 ZZO 1016,1 20 0
11.12.2017 11:00:00 14,0 11,5 28 15 ZZO 1016,2 20 0
11.12.2017 10:00:00 13,2 10,7 28 15 Z 1016,0 20 0
11.12.2017 09:00:00 13,0 9,2 28 15 Z 1016,0 20 0
11.12.2017 08:00:00 12,2 8,5 21 11 ZZW 1016,0 20 0
11.12.2017 07:00:00 12,0 8,8 13 7 WZW 1016,1 20 -
11.12.2017 06:00:00 11,8 8,5 9 5 ZZW 1016,6 20 -
11.12.2017 05:00:00 11,6 8,8 9 5 NW 1017,0 20 -
11.12.2017 04:00:00 11,6 7,9 8 4 WNW 1017,5 20 -
11.12.2017 03:00:00 11,6 7,9 8 4 WNW 1017,6 20 -
11.12.2017 02:00:00 11,6 7,9 8 4 W 1017,6 20 -
11.12.2017 01:00:00 11,4 8,6 8 4 NW 1018,2 20 -
11.12.2017 00:00:00 11,6 8,5 9 5 W 1018,3 20 -
10.12.2017 23:00:00 11,6 8,1 9 5 WNW 1018,5 20 -
10.12.2017 22:00:00 11,4 8,6 13 7 NW 1018,7 20 -
10.12.2017 21:00:00 11,4 9,1 15 8 WNW 1018,7 20 -
10.12.2017 20:00:00 11,4 8,8 0 0 N 1018,7 20 -
10.12.2017 19:00:00 11,6 7,5 8 4 WZW 1018,8 20 -
10.12.2017 18:00:00 11,8 7,5 8 4 WZW 1018,8 20 -
10.12.2017 17:00:00 11,8 5,0 9 5 ZW 1018,8 20 -
10.12.2017 16:00:00 12,0 4,5 8 4 ZZW 1019,0 20 6
10.12.2017 15:00:00 12,4 2,8 0 0 N 1019,4 20 42
10.12.2017 14:00:00 12,6 3,3 13 7 ZW 1019,6 20 60
10.12.2017 13:00:00 12,4 3,6 13 7 ZZW 1019,7 20 60
10.12.2017 12:00:00 12,4 3,6 15 8 ZW 1019,6 20 60
10.12.2017 11:00:00 12,0 3,0 9 5 ZW 1019,4 20 60
10.12.2017 10:00:00 9,0 0,4 16 9 NW 1019,1 18 60
10.12.2017 09:00:00 8,8 1,0 11 6 N 1018,6 18 60
10.12.2017 08:00:00 8,4 -0,1 11 6 WNW 1018,2 15 12
10.12.2017 07:00:00 8,4 -0,4 13 7 NNW 1017,4 15 -
10.12.2017 06:00:00 8,6 0,1 9 5 NW 1017,0 15 -
10.12.2017 05:00:00 8,8 1,5 11 6 OZO 1016,7 15 -
10.12.2017 04:00:00 9,4 0,8 11 6 ZZO 1016,2 15 -
10.12.2017 03:00:00 9,6 1,0 16 9 ZZW 1016,1 15 -
10.12.2017 02:00:00 10,0 1,6 22 12 ZZW 1015,6 15 -
10.12.2017 01:00:00 10,2 1,6 15 8 ZW 1015,0 15 -
10.12.2017 00:00:00 10,2 2,8 21 11 ZZW 1014,7 15 -
09.12.2017 23:00:00 10,4 4,3 16 9 ZZW 1013,8 15 -
09.12.2017 22:00:00 10,2 5,0 22 12 ZZW 1013,3 15 -
09.12.2017 21:00:00 10,0 6,7 29 16 W 1012,5 15 -
09.12.2017 20:00:00 9,2 6,8 26 14 WNW 1012,3 15 -

tt = temperatuur
td = dauwpunt
ff = windsnelheid
dd = windrichting
ppp = luchtdruk
vv = zicht
sd = Zonneschijnduur

Weerstations in de omgeving